Date String (YYYY-MM-DD hh:mm:ss) UTC,Instrument flags,Ambient pressure (hPa),Sample flow (lpm),Bypass flow (lpm),Sample temperature (°C),Ambient temperature (°C),ASC tube jacket temperature (°C),LED temperature (°C),Box temperature (°C),Sample RH (%),Span deviation,Mass concentration (μg/m³),Mass concentration (μg/m³),Mass concentration (μg/m³)
DateTimeUTC,F1_M11,P_M11,Q1_M11,Q2_M11,T1_M11,T2_M11,T3_M11,T4_M11,T5_M11,U1_M11,ZSPAN_M11,X0_M11,X2_M11,X1_M11
2022-11-29 18:00:00,,0818.4,5.02,0.00,21.8,20.2,00.0,30.9,23.5,10.5,0000.0,0003.25,0001.58,0001.20
2022-11-29 18:01:00,,0818.4,5.00,0.00,21.8,20.3,00.0,30.9,23.6,10.5,0000.0,0003.01,0001.60,0001.22
2022-11-29 18:02:00,,0818.4,5.00,0.00,21.9,20.4,00.0,30.9,23.6,10.5,0000.0,0002.72,0001.66,0001.25
2022-11-29 18:03:00,,0818.4,5.00,0.00,21.9,20.5,00.0,30.9,23.6,10.6,0000.0,0002.79,0001.71,0001.29
2022-11-29 18:04:00,,0818.4,5.00,0.00,21.8,20.4,00.0,30.9,23.6,10.4,0000.0,0002.90,0001.76,0001.32
2022-11-29 18:05:00,,0818.4,4.99,0.00,21.8,20.3,00.0,30.9,23.5,10.3,0000.0,0003.04,0001.83,0001.36
2022-11-29 18:06:00,,0818.3,4.99,0.00,21.8,20.3,00.0,30.8,23.5,10.3,0000.0,0003.07,0001.87,0001.39
2022-11-29 18:07:00,,0818.3,5.00,0.00,21.8,20.3,00.0,30.8,23.5,10.3,0000.0,0003.22,0001.89,0001.41
2022-11-29 18:08:00,,0818.3,5.01,0.00,21.8,20.2,00.0,30.8,23.4,10.3,0000.0,0003.90,0001.90,0001.45
2022-11-29 18:09:00,,0818.3,5.01,0.00,21.7,20.1,00.0,30.8,23.4,10.3,0000.0,0004.22,0001.95,0001.48
2022-11-29 18:10:00,,0818.3,4.99,0.00,21.7,20.6,00.0,30.8,23.5,10.3,0000.0,0004.16,0001.94,0001.49
2022-11-29 18:11:00,,0818.3,5.00,0.00,21.9,21.8,00.0,30.7,23.8,10.3,0000.0,0004.23,0001.98,0001.50
2022-11-29 18:12:00,,0818.3,5.01,0.00,22.0,22.5,00.0,30.8,24.0,10.3,0000.0,0004.32,0002.03,0001.52
2022-11-29 18:13:00,,0818.3,4.98,0.00,22.0,22.1,00.0,30.8,24.0,10.2,0000.0,0004.19,0002.02,0001.53
2022-11-29 18:14:00,,0818.3,5.01,0.00,22.1,21.7,00.0,30.9,24.0,10.2,0000.0,0004.15,0002.00,0001.54
2022-11-29 18:15:00,,0818.3,5.00,0.00,22.1,21.4,00.0,30.9,23.9,10.3,0000.0,0004.29,0002.03,0001.55
2022-11-29 18:16:00,,0818.3,5.00,0.00,22.1,21.3,00.0,30.9,23.9,10.3,0000.0,0004.36,0002.04,0001.56
2022-11-29 18:17:00,,0818.3,5.02,0.00,22.1,21.2,00.0,30.9,24.0,10.3,0000.0,0005.23,0002.02,0001.57
2022-11-29 18:18:00,,0818.3,4.99,0.00,22.1,21.2,00.0,30.9,24.0,10.3,0000.0,0005.12,0002.03,0001.59
2022-11-29 18:19:00,,0818.4,4.99,0.00,22.1,21.1,00.0,31.0,23.9,10.2,0000.0,0004.79,0002.03,0001.61
2022-11-29 18:20:00,,0818.4,5.00,0.00,22.1,20.9,00.0,31.0,23.9,10.2,0000.0,0004.04,0002.02,0001.62
2022-11-29 18:21:00,,0818.4,5.00,0.00,22.1,20.9,00.0,31.0,23.9,10.2,0000.0,0004.16,0002.07,0001.65
2022-11-29 18:22:00,,0818.4,5.00,0.00,22.1,20.9,00.0,31.0,23.9,10.2,0000.0,0004.24,0002.12,0001.68
2022-11-29 18:23:00,,0818.4,4.99,0.00,22.0,20.7,00.0,31.0,23.8,10.2,0000.0,0004.23,0002.14,0001.73
2022-11-29 18:24:00,,0818.4,4.99,0.00,22.0,20.7,00.0,31.0,23.8,10.2,0000.0,0004.28,0002.16,0001.78
2022-11-29 18:25:00,,0818.4,5.00,0.00,22.0,20.7,00.0,31.0,23.8,10.2,0000.0,0004.40,0002.21,0001.81
2022-11-29 18:26:00,,0818.4,5.00,0.00,22.0,20.7,00.0,31.0,23.8,10.2,0000.0,0004.38,0002.24,0001.84
2022-11-29 18:27:00,,0818.4,5.01,0.00,22.0,20.7,00.0,31.0,23.8,10.1,0000.0,0004.28,0002.22,0001.86
2022-11-29 18:28:00,,0818.4,5.01,0.00,22.0,20.8,00.0,30.9,23.8,10.2,0000.0,0003.23,0002.22,0001.89
2022-11-29 18:29:00,,0818.4,5.00,0.00,22.0,20.7,00.0,30.9,23.8,10.3,0000.0,0003.29,0002.24,0001.90
2022-11-29 18:30:00,,0818.4,5.00,0.00,22.0,20.7,00.0,30.9,23.7,10.4,0000.0,0003.29,0002.26,0001.91
2022-11-29 18:31:00,,0818.4,5.00,0.00,22.0,20.6,00.0,30.9,23.7,10.4,0000.0,0003.29,0002.26,0001.92
2022-11-29 18:32:00,,0818.4,4.99,0.00,21.9,20.5,00.0,30.9,23.6,10.3,0000.0,0003.30,0002.27,0001.94
2022-11-29 18:33:00,,0818.3,5.00,0.00,21.9,20.5,00.0,30.9,23.6,10.3,0000.0,0003.31,0002.29,0001.94
2022-11-29 18:34:00,,0818.3,5.01,0.00,21.9,20.4,00.0,30.9,23.6,10.3,0000.0,0003.25,0002.27,0001.93
2022-11-29 18:35:00,,0818.2,5.01,0.00,21.9,20.4,00.0,30.9,23.6,10.2,0000.0,0003.28,0002.27,0001.90
2022-11-29 18:36:00,,0818.2,5.00,0.00,21.8,20.4,00.0,30.9,23.5,10.2,0000.0,0003.55,0002.30,0001.89
2022-11-29 18:37:00,,0818.2,5.00,0.00,21.8,20.3,00.0,30.8,23.5,10.2,0000.0,0003.69,0002.29,0001.89
2022-11-29 18:38:00,,0818.1,4.99,0.00,21.8,20.3,00.0,30.8,23.4,10.3,0000.0,0003.73,0002.28,0001.90
2022-11-29 18:39:00,,0818.1,5.00,0.00,21.8,20.2,00.0,30.8,23.4,10.4,0000.0,0003.95,0002.31,0001.90
2022-11-29 18:40:00,,0818.1,4.99,0.00,21.7,20.2,00.0,30.8,23.4,10.4,0000.0,0004.12,0002.35,0001.91
2022-11-29 18:41:00,,0818.2,5.00,0.00,21.7,20.2,00.0,30.8,23.4,10.5,0000.0,0004.24,0002.37,0001.93
2022-11-29 18:42:00,,0818.2,5.01,0.00,21.7,20.1,00.0,30.8,23.4,10.5,0000.0,0004.31,0002.39,0001.93
2022-11-29 18:43:00,,0818.2,5.01,0.00,21.7,20.6,00.0,30.7,23.5,10.4,0000.0,0004.26,0002.36,0001.92
2022-11-29 18:44:00,,0818.2,4.98,0.00,21.8,21.7,00.0,30.7,23.7,10.4,0000.0,0004.16,0002.31,0001.91
2022-11-29 18:45:00,,0818.1,5.00,0.00,21.9,22.3,00.0,30.7,23.9,10.3,0000.0,0004.08,0002.27,0001.90
2022-11-29 18:46:00,,0818.1,5.00,0.00,22.0,21.9,00.0,30.8,23.9,10.3,0000.0,0004.14,0002.29,0001.89
2022-11-29 18:47:00,,0818.1,5.00,0.00,21.9,21.4,00.0,30.8,23.8,10.3,0000.0,0003.89,0002.27,0001.89
2022-11-29 18:48:00,,0818.1,5.00,0.00,21.9,21.0,00.0,30.8,23.7,10.3,0000.0,0003.71,0002.28,0001.89
2022-11-29 18:49:00,,0818.2,5.00,0.00,21.9,20.8,00.0,30.8,23.6,10.3,0000.0,0003.76,0002.28,0001.89
2022-11-29 18:50:00,,0818.2,5.00,0.00,21.9,20.5,00.0,30.8,23.5,10.3,0000.0,0003.59,0002.26,0001.88
2022-11-29 18:51:00,,0818.2,5.00,0.00,21.8,20.3,00.0,30.8,23.5,10.3,0000.0,0003.56,0002.20,0001.86
2022-11-29 18:52:00,,0818.2,5.00,0.00,21.8,20.2,00.0,30.8,23.4,10.2,0000.0,0003.43,0002.16,0001.84
2022-11-29 18:53:00,,0818.2,5.00,0.00,21.7,20.1,00.0,30.8,23.4,10.1,0000.0,0003.34,0002.13,0001.82
2022-11-29 18:54:00,,0818.2,5.00,0.00,21.7,20.0,00.0,30.8,23.3,10.0,0000.0,0003.34,0002.11,0001.80
2022-11-29 18:55:00,,0818.2,5.00,0.00,21.7,20.0,00.0,30.8,23.3,09.9,0000.0,0003.49,0002.13,0001.77
2022-11-29 18:56:00,,0818.2,5.00,0.00,21.7,20.0,00.0,30.8,23.3,09.8,0000.0,0003.64,0002.16,0001.75
2022-11-29 18:57:00,,0818.2,4.99,0.00,21.6,19.9,00.0,30.8,23.3,09.8,0000.0,0003.47,0002.08,0001.72
2022-11-29 18:58:00,,0818.1,5.00,0.00,21.6,19.9,00.0,30.8,23.3,09.7,0000.0,0003.41,0002.01,0001.67
2022-11-29 18:59:00,,0818.1,5.01,0.00,21.6,19.8,00.0,30.7,23.3,09.8,0000.0,0003.46,0001.97,0001.61
